Voltar ao catálogo

STARLINK-11270

AtivoComunicaçõesVLEO
NORAD 60999·PAYLOAD·🇺🇸 United States

Lançado Sep 5, 2024 de Cape Canaveral Space Force Station

Loading…

Próximas Passagens (próximas 24 horas)

TLE

AtualizadoSource: CelesTrak SupGP

Época: Sep 14, 2026, 22:22 UTC

1 60999C 24158K   26257.93243056  .00089795  00000+0  73965-3 0  2574
2 60999  53.1567  68.4364 0001223  77.5330  21.7139 15.69665184    11

Acompanhe STARLINK-11270 em tempo real com AllMySat

Download on the App Store